Location: Eymir
(36.7333°N, 29.7833°E)
Time: 18:09:49
(UTC+00:00)

Okean 3 - Pass Details

Date: 14 January 2026
Orbit: 542 x 564 km, 82.5° (Epoch: 17 February)

Event Time Altitude Azimuth Distance (km) Brightness Sun altitude
Exits shadow 03:59:19 - 352° (N) 2,711 6.6 -14.6°
Reaches altitude 10° 04:01:29 10° 351° (N) 1,815 5.7 -14.2°
Maximum altitude 04:05:28 82° 265° (W) 552 3.2 -13.4°
Drops below altitude 10° 04:09:25 10° 177° (S) 1,797 6.2 -12.6°
Sets 04:11:34 0° 176° (S) 2,684 7.1 -12.2°
